Simultaneous Nadir Overpasses (SNOs) Predictions

Prediction of SNOs between LANDSAT-8 and METOP-B Satellite Orbit:

Table of predicted SNOs for the next 14.0 days since TLE Epoch: 3/23/2017
Index Date (LANDSAT-8) Time (LANDSAT-8) Lat,Lon (LANDSAT-8) SZA (LANDSAT-8 ) Date (METOP-B) Time (METOP-B) Lat,Lon (METOP-B) SZA (METOP-B ) Distance(km) Time Diff (sec)
1 03/23/2017 23:47:33 -81.11, 42.27 98.48 03/23/2017 23:47:54 -81.11, 42.30 98.47 0.78 21
2 03/26/2017 18:32:19 81.09, -59.18 80.42 03/26/2017 18:31:36 81.09, -59.21 80.40 0.53 43
3 03/26/2017 19:21:45 -81.11, 108.75 99.56 03/26/2017 19:22:15 -81.11, 108.79 99.54 0.94 30
4 03/29/2017 14:06:32 81.09, 7.23 79.34 03/29/2017 14:05:58 81.09, 7.22 79.33 0.38 34
5 03/29/2017 14:55:57 -81.13, 175.55 100.58 03/29/2017 14:56:36 -81.13, 175.64 100.56 1.57 39
6 04/01/2017 09:40:44 81.11, 73.96 78.31 04/01/2017 09:40:19 81.10, 74.00 78.31 0.83 25
7 04/01/2017 10:30:10 -81.13,-118.06 101.65 04/01/2017 10:30:58 -81.13,-117.91 101.62 2.63 48
8 04/04/2017 05:14:56 81.10, 140.28 77.24 04/04/2017 05:14:40 81.10, 140.40 77.25 2.08 16




NCC Satellite Simultaneous Nadir Overpasses (SNOs) Prediction Service
